Temp
19 18 17 19 20 21 21 21 19 20 22 21 22 19 21 21 21 21 20 21 19 20 24 25 25 25 24 22 21 21 20 20 19 18 17 16 17 17 18 18 20 20 20 20
19 17 19 20 20 20 20 20 20 20 21 21 20 20 21 21 20 21 21 21 21 21 21 22 25 25 24 23 22 21 21 20 20 18 18 17 17 17 17 17 18 20 20 20
17 19 20 20 19 19 18 19 19 20 20 21 20 19 23 22 20 21 20 21 21 21 21 21 21 24 24 24 22 21 21 20 20 19 18 18 18 17 17 17 17 18 20 20
17 18 18 18 19 19 18 19 20 20 20 18 21 17 21 22 21 21 21 21 20 21 21 21 21 22 24 24 24 22 21 20 19 18 18 18 18 18 18 18 17 17 19 20
17 17 17 18 18 19 19 20 20 20 19 17 19 17 21 20 21 20 21 22 22 20 20 20 21 22 25 26 24 24 22 21 20 19 19 18 18 19 19 18 17 17 18 19
17 17 17 17 19 19 19 19 19 19 17 16 17 18 20 20 21 22 22 21 21 20 19 19 22 24 23 24 25 25 24 23 20 19 18 18 18 19 19 18 17 17 17 18
15 17 17 18 17 18 18 17 15 16 14 15 18 18 20 20 21 22 21 21 20 19 20 20 18 19 21 21 23 24 23 22 21 19 18 18 18 19 19 18 17 17 16 17
14 15 17 17 17 17 16 16 13 14 15 16 18 16 18 21 21 20 19 18 19 19 19 19 19 18 19 20 21 22 23 22 21 20 19 18 18 18 18 18 18 17 16 16
13 14 15 16 17 18 17 16 17 15 15 14 15 17 20 21 21 17 16 18 18 18 18 18 18 19 19 20 20 21 21 22 22 21 19 18 18 18 18 18 17 17 16 16
14 13 14 16 17 16 17 17 15 14 13 12 14 15 17 19 17 15 16 16 16 17 17 18 18 19 20 20 20 20 21 20 21 21 19 18 18 18 18 18 17 17 16 17
11 12 13 15 14 15 14 14 15 15 13 12 13 14 16 15 15 15 15 16 17 16 17 18 18 19 19 19 19 19 19 20 19 20 19 17 17 17 17 18 16 16 16 16
11 10 10 12 14 14 14 14 13 10 12 11 12 15 17 14 15 15 15 16 16 16 16 17 17 18 18 19 19 19 19 18 17 18 20 17 17 17 17 17 16 15 16 15
10 9 7 11 13 13 13 13 14 12 9 9 11 14 16 16 16 16 15 16 16 15 16 16 16 16 17 17 18 18 17 17 18 18 19 17 17 17 17 16 15 15 14 14
10 8 9 7 11 11 10 11 12 12 8 11 12 12 14 15 15 15 16 15 14 16 16 15 16 15 16 16 16 17 17 16 17 18 18 18 17 17 16 15 14 14 13 12
9 9 9 9 9 10 11 11 11 10 11 10 11 12 13 14 15 15 15 15 15 15 15 16 15 15 15 15 16 16 16 16 16 17 18 17 17 16 15 14 14 12 12 11
8 7 8 8 9 9 9 10 10 11 11 11 12 12 14 14 14 14 14 15 15 14 15 14 15 15 14 15 15 15 15 16 15 16 17 17 16 15 14 13 12 11 11 10
8 8 9 8 9 9 8 9 10 11 11 11 10 12 13 13 14 14 14 14 14 14 14 13 14 14 14 14 14 14 14 14 15 14 15 16 15 14 13 12 11 10 9 8
7 8 8 8 9 7 10 12 11 10 11 11 12 13 13 13 14 14 14 12 13 15 13 13 13 13 14 13 13 13 13 12 14 13 14 14 14 13 12 11 10 8 8 7
7 7 7 7 6 9 10 11 10 10 11 12 11 12 13 13 13 13 14 13 13 12 12 12 13 13 13 12 12 12 12 12 13 13 13 14 13 12 10 10 9 8 7 7
7 7 7 6 7 4 12 12 11 11 9 12 11 11 12 12 9 12 12 12 12 11 12 13 13 13 12 12 12 11 11 10 11 13 13 13 12 12 10 9 8 7 7 6
7 7 7 7 7 9 10 12 12 10 10 12 11 11 10 10 11 13 12 11 11 12 13 13 12 12 12 12 11 10 10 9 10 11 12 12 12 12 10 8 7 7 6 5
6 5 6 7 7 8 11 10 10 10 11 10 11 9 9 10 11 10 11 12 13 11 11 12 12 11 12 12 11 9 9 10 10 10 10 11 11 10 8 7 6 6 5 4
6 7 6 7 7 9 10 10 10 9 10 10 10 11 10 10 11 12 12 12 11 11 11 12 12 11 11 11 10 8 9 8 9 8 9 10 9 9 7 7 6 5 5 4
7 8 8 8 10 10 11 11 11 11 11 11 11 10 10 10 10 10 11 10 11 11 10 11 10 10 9 10 10 9 8 8 9 8 8 8 8 7 6 6 5 5 4 3
7 8 8 8 9 9 10 10 10 10 10 10 11 10 10 9 9 10 10 10 10 9 10 10 10 9 9 10 9 8 7 7 7 7 6 6 6 5 5 5 4 4 3 3
7 8 7 7 9 9 9 10 10 9 9 10 9 10 10 9 9 10 9 9 9 9 9 9 9 8 8 8 6 6 6 6 6 5 4 4 4 4 3 3 3 3 3 2
Height
779 790 792 784 782 784 785 790 796 791 780 785 784 786 774 764 761 763 758 755 757 753 740 740 739 739 741 745 748 748 751 752 757 760 765 767 764 771 773 775 779 782 787 790
787 790 779 778 783 787 790 793 791 790 780 782 788 775 764 764 759 755 754 751 747 744 740 736 733 732 734 734 734 739 741 746 746 750 751 760 763 764 768 771 771 774 778 781
792 785 771 778 786 790 792 794 792 795 785 780 785 781 754 750 751 746 747 744 742 739 736 733 732 729 728 729 729 728 727 731 733 739 749 755 759 760 761 759 761 762 768 771
786 778 778 784 786 785 794 780 784 789 794 806 781 805 760 752 751 748 744 745 743 738 731 729 730 727 724 721 723 725 727 729 735 738 738 739 738 743 739 746 752 755 758 763
782 779 782 783 782 777 786 775 780 785 795 800 796 809 749 755 754 754 746 739 737 736 733 729 726 727 724 719 719 719 718 722 724 726 731 734 736 730 736 739 743 747 750 754
779 774 777 779 776 775 776 779 781 781 794 812 793 801 760 761 753 743 739 739 735 734 733 727 722 721 722 721 719 718 718 714 716 719 721 723 723 729 732 731 732 736 741 745
784 779 774 772 781 777 782 792 811 809 817 805 783 798 749 744 744 741 743 740 737 735 733 729 727 719 719 721 719 716 715 715 713 713 714 713 712 717 719 722 724 728 730 734
795 792 778 773 778 782 787 792 812 811 807 799 782 789 756 739 739 739 744 745 741 738 733 727 726 723 718 715 715 713 710 707 707 706 704 703 705 708 710 711 712 717 719 722
798 792 779 778 773 774 782 789 782 796 798 804 791 770 745 736 738 748 751 746 745 742 737 732 723 718 715 711 707 704 702 700 696 693 691 692 698 699 699 703 706 708 711 716
796 802 788 780 774 778 779 780 796 801 812 814 791 783 766 743 752 757 757 757 750 743 737 731 727 721 713 707 703 699 694 690 686 681 679 678 678 685 690 695 694 697 702 708
801 805 800 786 787 790 793 795 792 793 803 808 798 778 748 753 759 761 759 753 748 742 735 728 723 720 714 705 699 693 687 683 677 670 666 667 667 672 679 684 685 689 695 701
806 810 817 800 787 788 790 794 795 816 808 807 799 767 739 753 755 753 754 750 746 741 735 727 722 717 710 704 696 688 683 678 669 662 658 659 664 666 668 673 680 682 690 697
813 824 839 803 794 792 795 794 793 800 815 816 810 763 741 747 750 751 749 745 741 738 731 725 719 714 708 701 694 686 680 672 663 657 655 655 657 660 662 667 676 679 684 690
813 819 816 832 807 806 808 803 797 798 824 804 786 780 749 749 752 745 741 742 739 733 729 724 717 711 705 700 693 685 676 671 665 657 653 653 653 658 662 666 672 677 681 688
814 817 812 813 811 807 801 800 799 802 801 805 779 788 750 745 746 740 736 734 730 727 723 719 715 708 702 696 691 684 677 670 663 659 654 651 652 655 660 663 668 671 677 684
815 821 814 811 808 805 796 793 793 791 787 786 779 769 751 741 741 737 732 729 726 722 718 715 710 706 699 694 689 683 676 669 663 659 654 651 650 651 653 658 663 667 674 680
820 817 810 806 799 802 792 780 779 774 773 773 776 756 742 740 732 730 726 722 720 718 713 711 707 702 697 692 688 682 675 667 661 655 652 650 653 649 651 655 659 664 670 677
816 815 814 805 799 807 767 757 761 765 762 761 756 744 739 734 729 724 718 721 717 710 708 706 702 697 691 688 684 678 673 667 657 652 649 643 648 652 652 656 659 663 667 674
803 812 812 807 811 781 755 753 759 762 755 748 742 739 735 729 727 713 712 712 706 704 702 699 696 692 687 683 678 673 668 664 658 653 649 637 639 649 654 655 658 661 665 672
798 805 808 815 805 819 738 745 747 749 758 731 737 736 731 728 738 708 705 702 700 699 696 693 689 686 683 677 673 668 663 660 657 649 642 641 628 643 651 653 652 655 661 669
801 802 799 796 792 766 748 744 743 759 745 726 728 727 726 728 721 702 699 697 696 691 688 684 681 678 674 670 666 661 657 653 650 645 638 632 629 626 640 649 652 652 655 662
798 804 795 790 785 772 742 743 750 735 728 727 722 723 722 716 708 702 694 690 687 683 679 677 675 670 666 663 660 654 649 645 640 635 627 624 623 628 625 636 644 649 652 661
792 777 784 776 763 747 741 738 732 730 726 722 721 709 714 709 700 694 687 684 681 677 672 669 667 662 657 655 652 646 638 637 631 624 615 615 616 620 622 634 637 647 651 657
772 767 768 765 737 742 726 724 721 716 718 713 709 707 702 701 692 686 682 677 674 669 666 662 660 656 651 647 643 638 633 631 625 617 612 612 613 618 626 633 633 636 644 653
767 763 754 751 740 731 720 717 717 713 709 707 700 698 694 692 685 680 674 667 666 662 657 655 651 648 643 639 634 631 628 625 621 616 614 612 611 618 620 622 628 634 643 645
755 746 754 739 727 729 713 704 712 711 704 700 695 685 680 682 675 670 665 661 658 654 649 646 643 641 636 632 628 626 623 619 618 615 615 613 612 615 615 619 630 640 644 652
Wind_Speed
0 3 10 13 10 4 3 4 5 1 1 6 3 10 12 12 10 9 9 8 9 11 18 23 29 33 31 30 34 40 41 43 40 40 36 34 41 37 42 44 45 43 41 39
1 13 6 2 5 6 4 4 12 3 4 3 5 19 12 6 10 8 10 10 10 6 8 14 24 28 30 34 40 37 43 41 46 40 41 33 31 32 34 36 42 45 43 41
7 3 5 6 4 6 5 9 8 6 5 4 5 12 16 4 6 8 7 10 9 9 10 9 9 22 28 29 34 39 46 47 47 43 31 29 25 29 28 36 41 49 47 43
6 5 9 5 3 5 6 8 9 5 2 3 3 7 16 8 13 9 9 6 9 10 9 6 7 13 23 29 31 33 34 36 38 36 35 39 39 31 40 35 34 37 47 46
6 1 5 0 4 9 4 3 2 3 2 5 2 3 10 8 16 7 8 9 7 8 9 10 10 10 19 22 30 35 34 34 37 39 43 37 36 39 28 30 32 36 41 46
4 3 4 5 2 2 2 1 2 3 4 4 8 2 22 4 7 3 4 8 10 9 9 10 17 18 12 15 15 26 30 37 39 42 42 42 42 38 30 31 33 34 35 42
5 4 4 4 3 2 2 4 2 1 1 9 10 9 24 1 6 9 8 11 11 10 11 12 10 14 20 16 18 16 25 34 35 39 40 45 46 41 40 35 35 32 33 41
2 3 1 1 6 5 5 7 5 5 4 3 3 9 9 6 4 5 7 8 11 13 15 17 14 13 22 28 22 15 17 26 33 38 43 45 45 42 41 38 38 37 37 41
3 4 4 5 1 2 1 1 3 1 2 2 5 12 18 20 18 8 13 15 15 16 15 17 17 22 21 25 30 29 23 25 29 37 45 42 42 43 42 39 36 37 36 38
2 3 4 4 4 6 3 2 2 2 2 4 4 5 11 11 4 9 12 11 13 15 15 15 14 24 31 30 30 32 33 30 31 36 40 41 44 45 43 38 39 41 37 41
5 2 5 3 3 1 4 2 2 1 4 4 3 6 4 4 5 5 7 13 15 15 17 17 15 22 29 32 32 33 30 31 34 34 37 39 39 40 39 41 40 40 39 43
4 0 3 4 6 5 3 4 4 4 4 2 2 11 5 5 5 12 10 12 14 13 15 17 14 23 26 27 29 32 31 30 29 31 29 33 33 34 38 38 37 36 41 38
4 1 2 6 4 3 2 1 2 2 2 4 2 11 7 20 22 15 15 17 14 9 15 14 15 13 20 27 29 30 31 32 35 28 24 25 28 31 33 31 31 36 39 37
2 3 6 5 3 0 5 3 1 4 2 4 15 19 29 23 20 23 22 16 11 13 12 10 14 12 19 26 28 32 33 30 30 23 20 21 23 25 25 28 30 37 35 34
2 3 2 5 8 9 13 12 13 13 10 9 20 16 32 27 24 24 20 18 16 10 9 11 11 13 16 21 28 34 37 32 29 24 19 20 21 24 26 27 34 31 32 34
3 3 3 10 9 13 20 17 16 18 19 18 20 27 26 27 22 21 18 16 13 11 11 9 11 13 14 19 24 32 36 36 28 24 21 18 23 27 30 30 29 32 33 34
4 2 4 5 3 8 16 13 20 16 14 20 20 26 27 23 22 20 18 15 14 12 12 9 11 11 17 21 24 26 34 38 30 23 20 16 19 23 24 28 30 30 32 34
6 6 6 7 7 9 6 1 6 14 16 17 19 25 23 23 19 21 19 12 13 19 8 8 11 17 24 23 23 25 27 33 32 24 21 15 18 17 21 23 26 29 33 35
16 8 4 4 3 15 18 8 7 7 16 16 21 20 21 20 17 24 17 11 15 10 8 9 19 23 26 25 27 25 23 28 29 26 24 19 21 19 20 22 25 28 32 32
10 12 7 1 4 7 15 4 7 4 9 17 8 14 17 13 7 17 8 7 9 8 13 20 24 23 22 27 26 24 23 20 25 31 36 21 11 23 24 27 31 33 32 32
4 5 14 11 9 11 4 5 1 6 13 13 7 9 9 6 9 19 14 12 10 14 22 27 24 20 25 27 25 23 23 21 28 34 34 28 31 40 36 29 29 33 34 33
9 7 6 6 8 14 7 2 8 7 6 9 11 9 9 12 17 15 18 18 18 15 16 23 19 22 28 26 24 24 22 30 34 36 31 33 34 31 34 34 30 30 33 32
4 7 4 9 6 5 4 9 16 12 15 15 14 23 12 15 21 24 22 21 15 14 18 25 19 23 28 27 25 22 32 29 37 36 26 25 27 27 29 34 33 30 31 31
4 4 8 7 21 16 23 21 20 21 19 18 18 18 18 17 22 22 19 16 14 14 14 23 20 17 21 27 27 31 33 32 32 31 19 21 25 24 28 28 30 30 30 30
8 4 12 14 20 24 25 21 18 18 17 17 22 19 19 15 19 20 18 18 13 13 20 21 19 19 24 29 29 32 29 21 19 14 13 18 22 23 23 21 23 26 28 36
7 19 10 15 20 16 23 24 16 17 21 21 18 25 23 16 18 19 18 15 12 13 21 19 20 19 24 27 26 25 19 12 13 8 11 12 18 20 23 26 24 20 26 26
Wind_Direction
230 210 218 209 205 244 173 231 240 264 344 1 302 287 274 283 290 294 277 253 225 238 249 245 241 237 228 223 221 222 220 221 216 212 213 215 219 222 227 228 231 232 232 232
161 238 221 100 183 231 261 271 268 292 241 195 334 291 281 247 264 241 259 278 268 227 258 263 251 241 229 222 219 216 220 217 219 213 214 215 219 223 226 229 230 232 231 230
196 247 44 193 166 189 213 230 267 266 309 226 252 284 295 265 232 269 227 241 274 258 259 272 266 251 240 229 224 216 220 218 216 213 208 212 218 224 221 223 225 228 227 227
236 257 289 228 210 204 242 193 224 258 315 273 136 287 280 288 288 259 287 260 269 294 295 278 275 272 262 242 234 232 226 222 222 210 204 205 209 211 221 221 222 222 226 227
228 168 63 328 232 176 218 68 173 172 203 15 149 244 292 15 299 305 299 293 288 284 306 318 326 283 305 276 253 238 237 226 220 212 213 213 218 220 219 216 216 216 221 224
233 197 175 196 259 82 6 49 230 183 118 251 228 11 284 217 272 300 313 326 324 330 320 310 318 334 332 328 302 279 251 238 223 218 215 215 219 222 218 212 206 208 211 215
341 254 207 154 186 232 167 87 332 2 174 239 139 186 242 80 296 298 304 311 329 331 340 348 329 326 336 327 316 295 269 252 238 223 219 220 223 220 219 215 209 204 202 209
173 347 57 351 192 205 190 167 164 211 210 292 142 226 248 332 67 341 12 14 358 349 339 336 335 320 317 319 318 299 284 263 255 236 230 227 225 223 222 217 212 209 208 210
40 275 342 82 336 104 311 145 186 267 328 268 225 278 292 278 277 35 8 359 348 336 332 325 324 323 319 314 313 309 292 281 271 252 240 231 229 226 224 222 214 211 207 211
38 294 2 334 29 22 104 254 49 42 249 250 262 251 238 288 356 20 358 340 328 322 323 320 316 317 316 314 308 304 294 286 282 270 243 230 223 224 224 221 212 209 204 214
35 121 294 354 55 41 346 353 46 227 158 222 271 248 218 109 109 11 335 336 335 323 321 322 318 314 311 308 308 307 303 297 293 281 248 228 222 218 218 221 215 207 205 214
350 30 256 230 285 311 215 204 154 153 250 273 316 269 62 114 332 348 337 328 324 308 310 309 314 322 321 315 312 312 310 307 308 296 260 228 223 215 212 215 213 198 207 208
353 300 349 345 9 24 87 126 125 144 114 201 206 262 340 319 315 316 307 309 309 291 303 307 321 325 329 328 324 322 322 318 319 313 258 224 220 217 212 204 202 196 202 201
227 238 182 194 257 288 294 293 360 270 209 267 247 294 292 291 300 301 301 303 292 294 291 302 312 319 320 323 324 327 325 323 316 311 267 231 221 217 208 194 190 205 197 191
117 239 267 272 262 261 256 249 274 265 249 248 279 274 275 289 292 295 298 297 294 286 287 299 305 312 317 320 326 328 325 324 320 304 279 234 219 204 194 192 202 188 187 184
354 262 310 284 255 253 259 248 245 243 248 256 263 264 268 279 285 284 289 291 281 286 284 285 299 304 311 318 325 324 322 323 313 296 277 249 212 199 198 193 182 182 177 174
266 258 287 261 204 319 281 232 230 240 233 233 249 252 269 270 274 279 285 279 285 283 279 283 293 297 309 315 321 319 321 320 311 288 267 239 220 197 191 183 175 169 165 163
222 248 267 280 300 260 269 206 239 217 234 236 247 253 257 267 280 285 280 283 281 282 255 277 298 305 309 312 310 313 323 320 314 286 259 233 219 206 186 179 172 165 164 164
209 212 253 262 219 293 289 253 202 199 259 237 235 260 268 275 289 284 282 253 259 252 267 276 282 291 301 303 306 311 315 320 321 287 266 245 218 211 190 179 172 166 162 163
190 206 220 174 250 244 279 13 210 144 258 256 212 249 260 278 286 281 297 254 270 273 275 293 281 284 289 297 301 303 303 309 311 310 295 275 211 204 200 188 176 170 167 165
161 211 223 232 244 260 295 204 96 233 261 288 200 235 252 241 236 273 292 285 271 273 286 287 275 278 282 294 298 294 294 295 297 300 295 251 222 207 204 188 181 173 164 160
191 190 207 221 241 264 236 326 191 232 293 277 286 265 269 269 277 271 285 289 300 289 283 278 276 276 286 290 292 285 282 295 304 297 287 239 215 203 180 181 176 170 160 157
245 205 204 198 222 247 248 260 278 268 271 276 279 286 276 272 280 283 286 292 288 283 285 288 279 275 284 286 287 275 289 301 308 299 286 226 199 190 180 174 165 163 162 157
267 202 241 278 267 270 269 277 273 283 281 277 280 283 286 276 276 278 284 279 284 286 284 283 280 280 278 285 286 279 291 304 306 297 258 197 179 172 174 173 166 161 161 157
235 241 251 268 275 279 274 265 277 283 283 288 290 282 279 277 271 277 278 282 280 276 278 270 275 278 278 288 289 290 297 293 284 262 209 174 163 161 152 148 157 163 169 166
212 253 250 261 267 269 277 289 292 287 290 287 286 290 287 277 277 279 275 275 275 274 275 277 273 271 282 291 290 296 296 281 250 191 177 164 154 147 138 128 121 153 156 158